Location: Observatory
(52.1446°N, 0.4624°W)
Time: 06:26:36
(UTC+00:00)

ISS - Pass Details

Date: 15 December 2017
Orbit: 403 x 407 km, 51.6° (Epoch: 12 December)

Event Time Altitude Azimuth Distance (km) Brightness Sun altitude
Rises 16:51:42 0° 282° (WNW) 2,333 0.9 -8.8°
Reaches altitude 10° 16:53:55 10° 272° (W) 1,469 0.1 -9.1°
Maximum altitude 16:56:53 31° 208° (SSW) 736 -1.9 -9.5°
Drops below altitude 10° 16:59:50 10° 144° (SE) 1,461 -1.1 -9.9°
Sets 17:02:02 0° 134° (SE) 2,318 -0.2 -10.2°
